Location: Newark
(27.9675°N, 86.8869°E)
Time: 01:58:40
(UTC+00:00)

SR - Pass Details

Date: 30 October 2019
Orbit: 574 x 882 km, 66.7° (Epoch: 18 November)

Event Time Altitude Azimuth Distance (km) Brightness Sun altitude
Rises 13:23:51 0° 213° (SSW) 2,970 ? -25.6°
Reaches altitude 10° 13:26:05 10° 217° (SW) 2,106 ? -26.1°
Maximum altitude 13:30:48 58° 296° (WNW) 843 ? -27.1°
Enters shadow 13:32:08 43° 349° (NNW) 1,023 ? -27.4°
Drops below altitude 10° 13:36:00 10° 15° (NNE) 2,320 - -28.3°
Sets 13:38:34 0° 20° (NNE) 3,300 - -28.9°
